Location: Wichling
(51.2667°N, 0.7500°E)
Time: 11:57:18
(UTC+00:00)

Daily predictions for brighter satellites

Satellite Brightness Start Highest point End
(mag) Time Altitude Azimuth Time Altitude Azimuth Time Altitude Azimuth
Cosmos 2219 4.4 16:22:52 10° NNW 16:27:19 23° NE 16:31:47 10° E
Thor Agena Rocket 3.8 16:23:13 10° SE 16:28:11 48° ENE 16:33:07 10° N
CENTAUR R/B 2.9 16:22:46 10° WSW 16:28:35 66° NW 16:36:01 10° NE
USA 290 2.2 16:28:50 10° NNW 16:32:04 60° ENE 16:35:17 10° SE
Cosmos 1484 Rocket 2.5 16:29:12 10° SSE 16:32:41 65° ENE 16:36:10 10° N
Cosmos 1544 Rocket 3.9 16:28:52 10° SSE 16:33:06 48° E 16:37:22 10° NNE
SL-16 R/B 2.7 16:27:09 10° NNE 16:33:19 58° ESE 16:39:24 10° S
Cosmos 1844 Rocket 4.4 16:31:07 10° N 16:33:54 14° NNE 16:36:41 10° NE
Lacrosse 5 rocket 1.5 16:30:18 10° W 16:33:58 50° NNW 16:37:34 10° ENE
Cosmos 1980 Rocket 4.0 16:33:33 10° ESE 16:35:20 11° E 16:37:07 10° ENE
Iridium 51 3.7 16:35:24 10° S 16:38:32 87° E 16:41:46 10° N
Lacrosse 4 Rocket 2.6 16:35:27 10° WSW 16:39:10 34° NW 16:42:51 10° NNE
BREEZE M DEB (TANK) 4.2 16:37:40 10° SSW 16:39:13 14° SSE 16:40:29 10° ESE
Meteor 1-27 4.4 16:35:39 10° SSW 16:41:28 82° WNW 16:47:15 10° N
CORIOLIS 4.2 16:37:12 10° SE 16:42:23 55° ENE 16:47:36 10° N
Cosmos 2263 Rocket 2.9 16:37:37 10° NNW 16:42:43 33° NE 16:47:49 10° ESE
Cosmos 2228 3.1 16:39:38 10° SSW 16:43:53 80° WNW 16:48:09 10° N
Cosmos 1777 Rocket 4.5 16:39:16 10° S 16:44:12 43° ESE 16:49:09 10° NE
CZ-2D R/B 3.6 16:46:17 10° SE 16:49:00 27° ENE 16:51:44 10° N
Okean 1-7 Rocket 3.9 16:46:06 10° N 16:50:18 42° ENE 16:54:27 10° SE
Cosmos 1455 Rocket 4.5 16:47:07 10° SW 16:51:10 38° WNW 16:55:17 10° N
Cosmos 1602 Rocket 3.5 16:47:55 10° N 16:52:18 62° ENE 16:56:36 10° SSE
IRIDIUM 114 4.5 16:47:13 10° N 16:52:19 51° E 16:57:24 10° SSE
Cosmos 1461 3.3 16:51:44 10° SSW 16:55:25 41° ESE 16:58:30 14° NE
Cosmos 1933 4.1 16:54:38 10° SSE 16:57:58 29° E 17:01:19 10° NNE
Cosmos 2227 Rocket 2.2 16:53:51 10° NNW 16:59:27 60° NE 17:05:02 10° SE
USA 215 3.6 16:53:49 11° ENE 16:59:54 56° N 17:06:17 10° W
Cosmos 1634 Rocket 4.3 16:54:11 10° SSW 17:00:20 69° WNW 17:06:31 10° N
IRS-1C 4.2 16:55:11 10° SE 17:00:22 57° ENE 17:05:35 10° N
YAOGAN 1 3.8 16:58:18 10° ESE 17:01:18 19° ENE 17:04:18 10° NNE
IRIDIUM 103 4.3 16:56:20 10° N 17:01:32 61° E 17:06:41 10° SSE
Cosmos 1743 2.3 16:59:37 10° NNW 17:02:52 82° W 17:06:06 10° S
NOSS 7 (H) 3.9 17:00:08 10° NW 17:03:04 82° NE 17:06:10 10° SE
Cosmos 1486 Rocket 4.0 16:58:40 10° SSW 17:03:52 77° ESE 17:09:08 10° NNE
Cosmos 2369 Rocket 4.1 16:59:36 10° W 17:03:54 22° NW 17:08:15 10° NNE
SJ-12 3.9 17:01:30 10° SE 17:05:07 46° ENE 17:08:46 10° N
Cosmos 2151 2.8 17:02:14 10° N 17:06:25 82° ENE 17:10:35 10° SSE
Cosmos 2360 4.2 17:02:17 10° SSW 17:07:59 79° ESE 17:13:46 10° NNE
Cosmos 2279 Rocket 4.1 17:05:42 10° SSW 17:11:54 79° W 17:18:12 10° N
Cosmos 1655 Rocket 4.2 17:06:10 10° N 17:12:10 46° ENE 17:18:06 10° SE
IGS 5A 4.1 17:10:15 10° S 17:14:09 56° W 17:18:05 10° NNW
Cosmos 1867 3.7 17:08:51 10° NW 17:14:20 81° SW 17:19:46 10° SE
Cosmos 1697 Rocket 3.0 17:09:30 10° S 17:14:49 46° ESE 17:19:15 15° NE
Cosmos 990 Rocket 4.4 17:10:32 10° S 17:15:17 40° ESE 17:19:09 15° NE
Cosmos 1953 Rocket 4.1 17:11:55 10° N 17:16:01 35° ENE 17:20:08 10° SE
MOS 1 Rocket 3.5 17:13:02 10° SSE 17:17:54 58° ENE 17:23:02 10° N
SAR-Lupe-4 3.4 17:14:58 10° SSE 17:18:29 69° ENE 17:22:02 10° N
IRIDIUM 106 4.3 17:14:37 10° N 17:19:54 84° E 17:25:07 10° S
NOSS 2-2 (D) 3.5 17:20:22 10° WSW 17:23:26 43° NW 17:25:11 20° NNE
Cosmos 1782 3.5 17:20:24 10° SSW 17:23:53 48° WNW 17:27:24 10° N
Cosmos 2084 Rocket 4.5 17:20:45 10° NW 17:24:48 47° SW 17:28:50 10° SSE
ARIANE 5 R/B 2.5 17:20:12 10° SSE 17:25:16 87° ENE 17:30:27 10° NNW
Cosmos 1825 Rocket 3.4 17:21:08 10° N 17:25:29 68° ENE 17:29:47 10° SSE
Resurs 01 Rocket 3.8 17:29:46 10° NNE 17:29:46 10° NNE 17:29:52 10° NNE
SAR-Lupe-1 3.9 17:25:45 10° SSE 17:29:22 80° ENE 17:33:00 10° NNW
Cosmos 2098 Rocket 3.8 17:27:53 10° SSW 17:32:07 59° WNW 17:37:07 10° N
USA 81 4.4 17:28:12 10° N 17:33:11 41° ENE 17:38:08 10° SE
Cosmos 1656 4.2 17:27:38 10° SW 17:33:11 57° NW 17:38:38 11° NNE
UNK 3.7 17:29:35 10° NNE 17:34:13 86° WNW 17:38:46 10° SSW
CZ-2D R/B 3.8 17:32:39 10° SE 17:36:35 42° ENE 17:40:30 10° N
NOSS 3-2 (A) 3.8 17:32:37 10° WSW 17:37:46 53° NW 17:42:25 18° NE
Gbstr 26 Del rocket 3.4 17:34:30 10° SW 17:38:17 40° SSE 17:39:37 29° ESE
NOSS 3-2 (C) 3.1 17:33:59 10° SW 17:39:07 87° SE 17:43:15 22° NE
SPOT 1/Viking Rocket 3.5 17:37:10 10° SSE 17:42:17 62° ENE 17:47:27 10° N
Cosmos 1076 Rocket 3.4 17:39:16 10° N 17:43:34 68° ENE 17:47:51 10° SSE
NOSS 2-2 (E) 3.8 17:40:58 10° WSW 17:43:55 35° NW 17:45:00 26° N
PSLV R/B 3.9 17:43:07 29° ESE 17:44:17 36° ENE 17:48:01 10° N
SMAP 4.0 17:39:52 10° S 17:44:23 50° W 17:48:58 10° NNW
[s.n.66845] 3.6 17:42:49 10° NNW 17:43:44 18° N 17:43:44 18° N
[s.n.66847] 3.6 17:43:15 10° NNW 17:44:11 18° N 17:44:11 18° N
Cosmos 2266 Rocket 4.4 17:40:01 10° NNW 17:46:06 64° W 17:52:03 10° S
[s.n.66846] 3.6 17:43:41 10° NNW 17:44:37 18° N 17:44:37 18° N
Cosmos 2082 3.9 17:41:09 10° NNW 17:46:41 48° NE 17:50:42 18° ESE
CZ-4C R/B 3.7 17:40:00 10° NW 17:46:47 55° SW 17:55:08 10° SSE
[s.n.66843] 3.6 17:44:13 10° NNW 17:45:08 18° N 17:45:08 18° N
[s.n.66844] 3.6 17:44:40 10° NNW 17:45:35 18° N 17:45:35 18° N
[s.n.66842] 3.7 17:45:12 10° NNW 17:46:06 18° N 17:46:06 18° N
SL-19 R/B 4.4 17:42:49 10° SE 17:48:01 49° ENE 17:53:32 10° N
[s.n.66841] 3.7 17:45:39 10° NNW 17:46:34 18° N 17:46:34 18° N
COSMO-SKYMED 1 3.5 17:49:13 26° ESE 17:49:13 26° ESE 17:51:54 10° SSE
[s.n.66840] 3.7 17:46:09 10° NNW 17:47:03 18° N 17:47:03 18° N
Landsat 7 4.4 17:44:35 10° S 17:49:10 58° W 17:53:47 10° NNW
[s.n.66838] 3.7 17:46:38 10° NNW 17:47:32 18° NNW 17:47:32 18° NNW
[s.n.66839] 3.7 17:47:08 10° NNW 17:48:01 18° NNW 17:48:01 18° NNW
IRS-P3 4.1 17:44:31 10° SSE 17:49:51 84° WSW 17:55:12 10° NNW
SJ-6F 4.4 17:46:01 10° SSE 17:50:00 80° WSW 17:54:03 10° NNW
[s.n.66837] 3.7 17:47:35 10° NNW 17:48:28 18° NNW 17:48:28 18° NNW
Cosmos 2058 Rocket 3.6 17:46:12 10° SSE 17:50:18 37° E 17:50:45 36° ENE
[s.n.66836] 3.7 17:48:06 10° NNW 17:48:58 18° NNW 17:48:58 18° NNW
[s.n.66835] 3.7 17:48:36 10° NNW 17:49:28 17° NNW 17:49:28 17° NNW
[s.n.66834] 3.7 17:49:06 10° NNW 17:49:57 18° NNW 17:49:57 18° NNW
Cosmos 2297 Rocket 4.1 17:46:50 10° NW 17:51:46 31° WSW 17:56:40 10° SSW
[s.n.66833] 3.7 17:49:32 10° NNW 17:50:23 17° NNW 17:50:23 17° NNW
[s.n.66832] 3.7 17:50:04 10° NNW 17:50:56 18° NNW 17:50:56 18° NNW
[s.n.66831] 3.8 17:50:30 10° NNW 17:51:20 17° NNW 17:51:20 17° NNW
[s.n.66830] 3.8 17:50:56 10° NNW 17:51:46 17° NNW 17:51:46 17° NNW
[s.n.66828] 3.8 17:51:22 10° NNW 17:52:12 17° NNW 17:52:12 17° NNW
[s.n.66829] 3.8 17:51:54 10° NNW 17:52:44 17° NNW 17:52:44 17° NNW
[s.n.66827] 3.8 17:52:26 10° NNW 17:53:15 17° NNW 17:53:15 17° NNW
[s.n.66826] 3.8 17:52:56 10° NNW 17:53:45 17° NNW 17:53:45 17° NNW
[s.n.66825] 3.8 17:53:23 10° NNW 17:54:11 17° NNW 17:54:11 17° NNW
[s.n.66824] 3.8 17:53:54 10° NNW 17:54:42 17° NNW 17:54:42 17° NNW
[s.n.66823] 3.8 17:54:25 10° NNW 17:55:12 17° NNW 17:55:12 17° NNW
[s.n.66822] 3.9 17:54:54 10° NNW 17:55:41 17° NNW 17:55:41 17° NNW
[s.n.66821] 3.9 17:55:22 10° NNW 17:56:09 17° NNW 17:56:09 17° NNW
Cosmos 1538 Rocket 3.9 17:53:52 10° NNW 17:59:11 85° ENE 18:04:32 10° SSE
Cosmos 1606 Rocket 3.8 17:57:00 10° SSW 18:01:23 69° WNW 18:05:39 11° N
Meteor 1-26 Rocket 4.3 17:59:04 10° SSE 18:04:10 45° E 18:05:35 37° NE
Lacrosse 5 rocket 2.2 18:08:08 10° WNW 18:11:16 32° N 18:11:16 32° N
Cosmos 1553 Rocket 4.1 18:05:45 10° SSE 18:11:36 48° E 18:14:51 26° NNE
Cosmos 2219 3.1 18:06:36 10° NNW 18:12:22 81° ENE 18:17:56 11° SSE
GEOS 3 Rocket 3.9 18:09:53 29° NNE 18:12:38 69° NW 18:17:58 10° WSW
BREEZE-M DEB (TANK) 3.2 18:11:10 10° SW 18:12:05 26° SW 18:12:05 26° SW
Resurs 1-3 3.4 18:08:47 10° SSE 18:13:04 77° ENE 18:17:24 10° N
SL-16 R/B 4.0 18:11:08 10° N 18:16:37 34° WNW 18:22:03 10° WSW
Lacrosse 4 Rocket 3.9 18:17:15 10° NW 18:18:10 11° NNW 18:19:05 10° N
Cosmos 1980 Rocket 2.1 18:12:37 10° SSW 18:18:12 65° ESE 18:19:44 46° NE
Cosmos 1844 Rocket 3.3 18:14:15 10° NNW 18:19:00 36° NE 18:19:00 36° NE
Cosmos 1354 Rocket 4.5 18:14:22 10° SW 18:19:34 59° WNW 18:22:53 22° NNE
CENTAUR R/B 3.8 18:14:35 10° WNW 18:20:32 35° N 18:24:02 24° NNE
Meteor 2-20 4.4 18:15:52 10° S 18:22:02 87° W 18:28:15 10° N
USA 281 4.3 18:22:44 25° NNE 18:22:44 25° NNE 18:27:16 10° NNW
NOSS 2-3 (C) 3.6 18:21:17 10° SW 18:23:55 49° SSW 18:23:55 49° SSW
Spot 4 Rocket 4.0 18:19:47 10° SSE 18:24:55 81° WSW 18:30:04 10° NNW
Cosmos 1726 Rocket 4.3 18:20:46 10° SSW 18:25:19 56° WNW 18:28:51 16° N
Cosmos 1745 Rocket 4.3 18:19:40 10° N 18:24:48 43° NE 18:24:48 43° NE
Cosmos 2263 Rocket 2.7 18:21:24 10° NW 18:26:59 60° WSW 18:32:33 10° SSE
Cosmos 1898 Rocket 3.4 18:25:19 10° S 18:30:11 61° ESE 18:30:11 61° ESE
Cosmos 2369 4.0 18:25:45 10° S 18:30:42 47° SE 18:30:42 47° SE
Cosmos 1244 Rocket 4.4 18:25:01 10° N 18:31:21 90° S 18:37:33 10° S
Cosmos 1461 4.0 18:28:40 10° WSW 18:32:15 33° NW 18:32:38 32° NNW
Cosmos 44 Rocket 4.0 18:28:04 10° NW 18:32:08 40° NNE 18:32:08 40° NNE
YAOGAN 1 2.9 18:32:32 10° S 18:36:45 61° W 18:40:59 10° NNW
SKYMED 2 3.8 18:36:02 47° NNW 18:37:06 66° WNW 18:41:24 10° SSW
Cosmos-2242 3.2 18:33:04 10° S 18:36:35 60° SSW 18:36:35 60° SSW
Meteor 1-17 Rocket 4.5 18:32:12 10° N 18:37:48 77° ENE 18:40:26 32° SSE
USA 238 DEB 3.4 18:33:41 10° SW 18:39:48 77° SE 18:41:14 57° ENE
USA 238 3.4 18:33:47 10° SW 18:39:55 77° SE 18:41:19 57° ENE
Cosmos 923 Rocket 3.8 18:35:50 10° NNW 18:41:04 86° ENE 18:41:32 75° SE
USA 215 3.3 18:41:10 52° ENE 18:42:29 62° NNE 18:48:57 10° WNW
Cosmos 372 Rocket 3.8 18:37:41 10° SSW 18:42:51 90° WNW 18:43:10 80° NNE
Cosmos 2227 Rocket 4.1 18:38:24 10° NW 18:43:08 28° WSW 18:47:52 10° SSW
Meteor 2-20 Rocket 4.4 18:37:32 10° SSW 18:43:46 84° W 18:48:13 19° N
Cosmos 1943 Rocket 4.4 18:41:47 10° N 18:42:28 11° N 18:42:28 11° N
SL-08 R/B 4.5 18:39:39 10° N 18:46:01 85° W 18:52:21 10° S
Cosmos 1937 Rocket 4.2 18:44:02 10° S 18:47:30 41° S 18:47:30 41° S
BREEZE-M DEB (TANK) 4.4 18:46:51 10° WNW 18:51:04 88° SSW 18:54:54 43° ESE
Cosmos 1386 Rocket 4.3 18:45:07 10° N 18:51:14 81° E 18:57:26 10° SSE
Cosmos 1697 Rocket 3.8 18:53:39 10° WSW 18:58:53 39° NW 19:00:59 29° N
Aureole 1 Rocket 3.8 18:54:54 10° SW 18:59:30 63° WNW 19:00:03 59° NNW
Resurs 01 Rocket 4.2 19:07:10 11° NNW 19:07:10 11° NNW 19:07:23 10° NNW
Cosmos 2278 Rocket 4.5 19:00:56 10° N 19:01:48 12° N 19:01:48 12° N
Cosmos 1680 Rocket 4.2 19:08:15 10° NNW 19:12:02 47° NW 19:12:02 47° NW
COSMOS 2455 4.3 19:10:17 10° SSW 19:12:49 26° S 19:12:49 26° S
NOSS 3-2 (C) 4.5 19:25:36 10° W 19:30:40 35° NNW 19:30:40 35° NNW
Cosmos 1980 Rocket 3.9 19:57:39 10° WSW 20:01:31 29° WNW 20:01:31 29° WNW
Cosmos 1844 Rocket 4.5 19:58:08 10° NW 20:00:39 26° NW 20:00:39 26° NW
CENTAUR R/B 4.2 20:06:29 10° NW 20:11:08 32° NNW 20:11:08 32° NNW
